Weather History for KHSI - December, 2013

Change the Weather History Date:

Wednesday, December 4, 2013

  Actual Average Record
Temperature  
Mean Temperature 18 °F 30 °F  
Max Temperature 25 °F 40 °F 67 °F (1979)
Min Temperature 11 °F 21 °F -9 °F (1919)
Degree Days  
Heating Degree Days 47 35  
Month to date heating degree days 126 136  
Since 1 July heating degree days 1391 1417  
Cooling Degree Days 0 0  
Month to date cooling degree days 0 0  
Year to date cooling degree days 1158 1077  
Moisture  
Dew Point 10 °F    
Average Humidity 72    
Maximum Humidity 92    
Minimum Humidity 51    
Precipitation  
Precipitation T in 0.04 in 0.65 in (1924)
Month to date precipitation T 0.16  
Year to date precipitation 25.07 26.66  
Snow  
Snow T in 0.20 in 6.00 in (1910)
Month to date snowfall T 0.7  
Since 1 July snowfall 0.4 4.5  
Snow Depth 6.00 in    
Sea Level Pressure  
Sea Level Pressure 29.84 in    
Wind  
Wind Speed 20 mph (NNW)    
Max Wind Speed 29 mph    
Max Gust Speed 35 mph    
Visibility 9 miles    
Events Snow    
T = Trace of Precipitation, MM = Missing Value Source: NWS Daily Summary

Daily Weather History Graph

Daily Weather History Graph

Search for Another Location

Airport or City:

Trip Planner

Search our weather history database for the weather conditions in past years. The results will help you decide how hot, cold, wet, or windy it might be!

Date:

Astronomy

Dec. 04, 2013 Rise Set
Actual Time 7:41 AM CST 5:06 PM CST
Civil Twilight 7:10 AM CST 5:37 PM CST
Nautical Twilight 6:36 AM CST 6:11 PM CST
Astronomical Twilight 6:03 AM CST 6:44 PM CST
Moon 9:10 AM CST (12/4) 7:18 PM CST (12/4)
Length of Visible Light 10h 26m
Length of Day
9h 25m
Waxing Crescent, 4% of the Moon is Illuminated
Dec 4
Waxing Crescent
Dec 9
First Quarter
Dec 17
Full
Dec 25
Last Quarter
Jan 1
New

Hourly Weather History & Observations

Time (CST) Temp. Windchill Dew Point Humidity Pressure Visibility Wind Dir Wind Speed Gust Speed Precip Events Conditions
12:53 AM 24.1 °F 10.6 °F 21.0 °F 88% 29.76 in 10.0 mi North 17.3 mph - N/A   Overcast
1:53 AM 23.0 °F 8.7 °F 19.0 °F 85% 29.74 in 10.0 mi North 18.4 mph 26.5 mph N/A   Overcast
2:01 AM 23.0 °F 9.2 °F 19.4 °F 86% 29.68 in 10.0 mi North 17.3 mph - N/A   Overcast
2:53 AM 21.0 °F 4.6 °F 18.0 °F 88% 29.75 in 10.0 mi North 23.0 mph 29.9 mph N/A   Overcast
3:13 AM 19.4 °F 2.8 °F 17.6 °F 93% 29.69 in 7.0 mi North 21.9 mph 29.9 mph N/A   Overcast
3:53 AM 19.9 °F 2.8 °F 17.1 °F 89% 29.78 in 8.0 mi NNW 24.2 mph 31.1 mph N/A   Overcast
4:20 AM 19.4 °F 2.8 °F 15.8 °F 86% 29.71 in 6.0 mi NNW 21.9 mph 26.5 mph N/A   Overcast
4:44 AM 17.6 °F 2.7 °F 15.8 °F 93% 29.69 in 8.0 mi North 16.1 mph - N/A   Overcast
4:53 AM 18.0 °F 1.3 °F 15.1 °F 88% 29.76 in 9.0 mi North 20.7 mph 27.6 mph N/A   Overcast
5:42 AM 17.6 °F 1.3 °F 15.8 °F 93% 29.71 in 8.0 mi NNW 19.6 mph 25.3 mph N/A   Overcast
5:53 AM 17.1 °F 0.6 °F 15.1 °F 92% 29.78 in 10.0 mi North 19.6 mph 27.6 mph N/A   Overcast
6:32 AM 17.6 °F 2.7 °F 14.0 °F 86% 29.71 in 10.0 mi NNW 16.1 mph 24.2 mph N/A   Overcast
6:44 AM 17.6 °F 2.2 °F 15.8 °F 93% 29.71 in 10.0 mi NNW 17.3 mph 23.0 mph N/A   Overcast
6:53 AM 17.1 °F 1.5 °F 14.0 °F 88% 29.78 in 10.0 mi NNW 17.3 mph - N/A   Overcast
7:17 AM 17.6 °F 0.1 °F 14.0 °F 86% 29.72 in 10.0 mi NNW 23.0 mph 31.1 mph N/A   Overcast
7:53 AM 17.1 °F 2.0 °F 12.9 °F 84% 29.82 in 6.0 mi NNW 16.1 mph 28.8 mph 0.00 in Snow Light Snow
8:53 AM 16.0 °F -2.5 °F 10.9 °F 81% 29.84 in 3.0 mi NNW 24.2 mph 28.8 mph 0.00 in Snow Light Snow
9:21 AM 15.8 °F -0.6 °F 10.4 °F 79% 29.77 in 5.0 mi NNW 18.4 mph 28.8 mph 0.00 in Snow Light Snow
9:53 AM 16.0 °F -0.9 °F 10.0 °F 77% 29.85 in 7.0 mi NNW 19.6 mph 28.8 mph 0.00 in Snow Light Snow
10:53 AM 15.1 °F -2.5 °F 10.0 °F 80% 29.86 in 5.0 mi NW 20.7 mph 27.6 mph 0.00 in Snow Light Snow
11:44 AM 17.6 °F 0.5 °F 8.6 °F 68% 29.76 in 10.0 mi NNW 21.9 mph 34.5 mph 0.00 in   Overcast
11:53 AM 17.1 °F -1.4 °F 8.1 °F 68% 29.83 in 10.0 mi NW 25.3 mph 33.4 mph 0.00 in   Overcast
12:29 PM 17.6 °F -1.0 °F 8.6 °F 68% 29.76 in 10.0 mi NW 26.5 mph 32.2 mph N/A   Overcast
12:53 PM 18.0 °F 1.3 °F 7.0 °F 62% 29.85 in 10.0 mi NW 20.7 mph 31.1 mph N/A   Overcast
1:03 PM 17.6 °F 0.9 °F 6.8 °F 63% 29.77 in 10.0 mi NW 20.7 mph 33.4 mph N/A   Overcast
1:53 PM 19.9 °F 3.9 °F 7.0 °F 57% 29.85 in 10.0 mi NW 20.7 mph - N/A   Overcast
2:23 PM 19.4 °F 2.8 °F 6.8 °F 58% 29.79 in 10.0 mi NNW 21.9 mph 29.9 mph N/A   Overcast
2:53 PM 21.0 °F 5.0 °F 6.1 °F 53% 29.86 in 10.0 mi NW 21.9 mph - N/A   Scattered Clouds
3:53 PM 19.9 °F 3.2 °F 5.0 °F 52% 29.91 in 10.0 mi NW 23.0 mph 31.1 mph N/A   Clear
4:53 PM 17.1 °F 2.0 °F 3.9 °F 56% 29.96 in 10.0 mi NW 16.1 mph 26.5 mph N/A   Partly Cloudy
5:53 PM 15.1 °F -2.0 °F 3.0 °F 59% 29.99 in 10.0 mi NW 19.6 mph 26.5 mph N/A   Scattered Clouds
6:53 PM 14.0 °F -3.0 °F 3.0 °F 62% 30.02 in 10.0 mi NW 18.4 mph 28.8 mph N/A   Partly Cloudy
7:53 PM 14.0 °F -3.9 °F 1.9 °F 59% 30.03 in 10.0 mi NNW 20.7 mph 27.6 mph N/A   Overcast
8:53 PM 14.0 °F -4.3 °F 1.9 °F 59% 30.10 in 10.0 mi NNW 21.9 mph 27.6 mph N/A   Overcast
9:53 PM 12.9 °F -4.9 °F 1.9 °F 62% 30.15 in 10.0 mi NNW 19.6 mph 28.8 mph N/A   Overcast
10:53 PM 12.9 °F -4.4 °F 1.0 °F 59% 30.19 in 10.0 mi NNW 18.4 mph 31.1 mph N/A   Mostly Cloudy
11:53 PM 10.9 °F -7.5 °F -0.9 °F 59% 30.21 in 10.0 mi NNW 19.6 mph - N/A   Clear